Weather History for Wahpeton, ND

Change the Weather History Date:

Thursday, March 27, 2014

  Actual Average (KFFM) Record (KFFM)
Temperature  
Mean Temperature 27 °F -  
Max Temperature 33 °F 41 °F 63 °F (1968)
Min Temperature 21 °F 24 °F -5 °F (1964)
Degree Days  
Heating Degree Days 38    
Moisture  
Dew Point 21 °F    
Average Humidity 68    
Maximum Humidity 80    
Minimum Humidity 55    
Precipitation  
Precipitation 0.00 in - - ()
Sea Level Pressure  
Sea Level Pressure 29.63 in    
Wind  
Wind Speed 16 mph (North)    
Max Wind Speed 28 mph    
Max Gust Speed 34 mph    
Visibility 10 miles    
Events      
Averages and records for this station are not official NWS values.
T = Trace of Precipitation, MM = Missing Value Source: NWS Daily Summary

Daily Weather History Graph

Daily Weather History Graph

Search for Another Location

Airport:

Trip Planner

Search our weather history database for the weather conditions in past years. The results will help you decide how hot, cold, wet, or windy it might be!

Date:

Astronomy

Mar. 27, 2014 Rise Set
Actual Time 7:15 AM CDT 7:48 PM CDT
Civil Twilight 6:45 AM CDT 8:18 PM CDT
Nautical Twilight 6:09 AM CDT 8:54 PM CDT
Astronomical Twilight 5:32 AM CDT 9:31 PM CDT
Moon 5:18 AM CDT (3/27) 4:27 PM CDT (3/27)
Length of Visible Light 13h 33m
Length of Day
12h 32m
Waning Crescent, 13% of the Moon is Illuminated
Mar 27
Waning Crescent
Mar 30
New
Apr 7
First Quarter
Apr 15
Full
Apr 22
Last Quarter

Hourly Weather History & Observations

Time (CDT) Temp. Windchill Dew Point Humidity Pressure Visibility Wind Dir Wind Speed Gust Speed Precip Events Conditions
12:15 AM 33.8 °F 27.7 °F 26.6 °F 75% 29.44 in 10.0 mi NNE 6.9 mph - N/A   Clear
12:35 AM 33.8 °F 28.6 °F 26.6 °F 75% 29.44 in 10.0 mi NE 5.8 mph - N/A   Clear
12:55 AM 33.8 °F 26.4 °F 26.6 °F 75% 29.43 in 10.0 mi NE 9.2 mph - N/A   Clear
1:15 AM 33.8 °F 25.8 °F 26.6 °F 75% 29.43 in 10.0 mi NE 10.4 mph - N/A   Clear
1:35 AM 33.8 °F 24.8 °F 26.6 °F 75% 29.43 in 10.0 mi NE 12.7 mph - N/A   Clear
1:55 AM 32.0 °F 23.6 °F 26.6 °F 80% 29.43 in 10.0 mi NNE 10.4 mph - N/A   Clear
2:15 AM 32.0 °F 23.0 °F 26.6 °F 80% 29.43 in 10.0 mi NE 11.5 mph - N/A   Clear
2:35 AM 32.0 °F 23.6 °F 26.6 °F 80% 29.44 in 10.0 mi NNE 10.4 mph - N/A   Clear
2:55 AM 32.0 °F 23.0 °F 26.6 °F 80% 29.44 in 10.0 mi NNE 11.5 mph - N/A   Clear
3:15 AM 32.0 °F 22.5 °F 24.8 °F 75% 29.45 in 10.0 mi NNE 12.7 mph - N/A   Clear
3:35 AM 32.0 °F 22.1 °F 24.8 °F 75% 29.44 in 10.0 mi NNE 13.8 mph - N/A   Clear
3:55 AM 32.0 °F 22.1 °F 24.8 °F 75% 29.45 in 10.0 mi NNE 13.8 mph 19.6 mph N/A   Clear
4:15 AM 32.0 °F 22.5 °F 24.8 °F 75% 29.45 in 10.0 mi NNE 12.7 mph - N/A   Clear
4:35 AM 32.0 °F 22.5 °F 23.0 °F 69% 29.46 in 10.0 mi NNE 12.7 mph - N/A   Clear
4:55 AM 32.0 °F 22.1 °F 23.0 °F 69% 29.47 in 10.0 mi North 13.8 mph - N/A   Clear
5:15 AM 32.0 °F 23.6 °F 23.0 °F 69% 29.48 in 10.0 mi North 10.4 mph 18.4 mph N/A   Clear
5:35 AM 32.0 °F 21.6 °F 23.0 °F 69% 29.49 in 10.0 mi North 15.0 mph - N/A   Scattered Clouds
5:55 AM 32.0 °F 22.1 °F 23.0 °F 69% 29.50 in 10.0 mi North 13.8 mph - N/A   Scattered Clouds
6:15 AM 32.0 °F 21.6 °F 23.0 °F 69% 29.51 in 10.0 mi North 15.0 mph 19.6 mph N/A   Mostly Cloudy
6:35 AM 32.0 °F 20.8 °F 23.0 °F 69% 29.52 in 10.0 mi North 17.3 mph 24.2 mph N/A   Mostly Cloudy
6:55 AM 30.2 °F 17.1 °F 23.0 °F 75% 29.52 in 10.0 mi North 21.9 mph 26.5 mph N/A   Scattered Clouds
7:15 AM 30.2 °F 17.8 °F 23.0 °F 75% 29.53 in 10.0 mi North 19.6 mph 25.3 mph N/A   Scattered Clouds
7:35 AM 30.2 °F 17.4 °F 21.2 °F 69% 29.54 in 10.0 mi North 20.7 mph 27.6 mph N/A   Scattered Clouds
7:55 AM 28.4 °F 14.4 °F 21.2 °F 74% 29.54 in 10.0 mi North 23.0 mph 28.8 mph N/A   Mostly Cloudy
8:15 AM 28.4 °F 15.1 °F 21.2 °F 74% 29.55 in 10.0 mi North 20.7 mph 27.6 mph N/A   Overcast
8:35 AM 28.4 °F 15.4 °F 21.2 °F 74% 29.55 in 10.0 mi North 19.6 mph 28.8 mph N/A   Overcast
8:55 AM 28.4 °F 15.4 °F 21.2 °F 74% 29.56 in 10.0 mi North 19.6 mph 25.3 mph N/A   Scattered Clouds
9:15 AM 28.4 °F 14.7 °F 21.2 °F 74% 29.56 in 10.0 mi North 21.9 mph 27.6 mph N/A   Scattered Clouds
9:35 AM 28.4 °F 15.1 °F 19.4 °F 69% 29.57 in 10.0 mi North 20.7 mph 31.1 mph N/A   Scattered Clouds
9:55 AM 28.4 °F 15.8 °F 21.2 °F 74% 29.58 in 10.0 mi North 18.4 mph 28.8 mph N/A   Scattered Clouds
10:15 AM 30.2 °F 19.8 °F 19.4 °F 64% 29.59 in 10.0 mi North 13.8 mph 32.2 mph N/A   Mostly Cloudy
10:35 AM 30.2 °F 17.4 °F 21.2 °F 69% 29.60 in 10.0 mi North 20.7 mph 32.2 mph N/A   Scattered Clouds
10:55 AM 30.2 °F 18.5 °F 21.2 °F 69% 29.61 in 10.0 mi North 17.3 mph 27.6 mph N/A   Clear
11:15 AM 30.2 °F 16.8 °F 21.2 °F 69% 29.61 in 10.0 mi North 23.0 mph 29.9 mph N/A   Clear
11:35 AM 30.2 °F 16.5 °F 21.2 °F 69% 29.61 in 10.0 mi North 24.2 mph 31.1 mph N/A   Clear
11:55 AM 32.0 °F 19.5 °F 21.2 °F 64% 29.62 in 10.0 mi North 21.9 mph 31.1 mph N/A   Clear
12:15 PM 32.0 °F 18.9 °F 21.2 °F 64% 29.63 in 10.0 mi North 24.2 mph 28.8 mph N/A   Clear
12:35 PM 32.0 °F 19.8 °F 21.2 °F 64% 29.63 in 10.0 mi North 20.7 mph 29.9 mph N/A   Clear
12:55 PM 32.0 °F 19.2 °F 21.2 °F 64% 29.63 in 10.0 mi North 23.0 mph 31.1 mph N/A   Scattered Clouds
1:15 PM 32.0 °F 19.2 °F 23.0 °F 69% 29.64 in 10.0 mi North 23.0 mph 29.9 mph N/A   Scattered Clouds
1:35 PM 32.0 °F 18.9 °F 23.0 °F 69% 29.64 in 10.0 mi North 24.2 mph 31.1 mph N/A   Scattered Clouds
1:55 PM 32.0 °F 18.9 °F 23.0 °F 69% 29.65 in 10.0 mi North 24.2 mph 29.9 mph N/A   Scattered Clouds
2:15 PM 32.0 °F 19.2 °F 23.0 °F 69% 29.65 in 10.0 mi North 23.0 mph 31.1 mph N/A   Scattered Clouds
2:35 PM 32.0 °F 19.8 °F 23.0 °F 69% 29.66 in 10.0 mi North 20.7 mph 28.8 mph N/A   Mostly Cloudy
2:55 PM 32.0 °F 20.1 °F 23.0 °F 69% 29.66 in 10.0 mi North 19.6 mph 33.4 mph N/A   Scattered Clouds
3:15 PM 33.8 °F 21.9 °F 23.0 °F 65% 29.67 in 10.0 mi North 21.9 mph 34.5 mph N/A   Scattered Clouds
3:35 PM 33.8 °F 22.2 °F 23.0 °F 65% 29.67 in 10.0 mi North 20.7 mph 29.9 mph N/A   Scattered Clouds
3:55 PM 33.8 °F 20.5 °F 23.0 °F 65% 29.68 in 10.0 mi North 27.6 mph 34.5 mph N/A   Scattered Clouds
4:15 PM 33.8 °F 21.3 °F 21.2 °F 60% 29.69 in 10.0 mi North 24.2 mph 29.9 mph N/A   Scattered Clouds
4:35 PM 32.0 °F 19.8 °F 21.2 °F 64% 29.69 in 10.0 mi North 20.7 mph 31.1 mph N/A   Clear
4:55 PM 32.0 °F 18.4 °F 21.2 °F 64% 29.70 in 10.0 mi North 26.5 mph 34.5 mph N/A   Clear
5:15 PM 32.0 °F 19.2 °F 21.2 °F 64% 29.71 in 10.0 mi North 23.0 mph 31.1 mph N/A   Clear
5:35 PM 32.0 °F 19.2 °F 21.2 °F 64% 29.71 in 10.0 mi North 23.0 mph 31.1 mph N/A   Clear
5:55 PM 32.0 °F 19.5 °F 21.2 °F 64% 29.73 in 10.0 mi North 21.9 mph 29.9 mph N/A   Clear
6:15 PM 32.0 °F 18.6 °F 21.2 °F 64% 29.73 in 10.0 mi North 25.3 mph 32.2 mph N/A   Clear
6:35 PM 32.0 °F 20.5 °F 19.4 °F 60% 29.74 in 10.0 mi North 18.4 mph 31.1 mph N/A   Clear
6:55 PM 32.0 °F 19.2 °F 21.2 °F 64% 29.75 in 10.0 mi North 23.0 mph 29.9 mph N/A   Clear
7:15 PM 30.2 °F 16.8 °F 19.4 °F 64% 29.76 in 10.0 mi North 23.0 mph 31.1 mph N/A   Clear
7:35 PM 30.2 °F 17.8 °F 19.4 °F 64% 29.78 in 10.0 mi North 19.6 mph 28.8 mph N/A   Clear
7:55 PM 30.2 °F 17.8 °F 17.6 °F 60% 29.79 in 10.0 mi North 19.6 mph 31.1 mph N/A   Clear
8:15 PM 28.4 °F 16.2 °F 17.6 °F 64% 29.80 in 10.0 mi North 17.3 mph 25.3 mph N/A   Clear
8:35 PM 28.4 °F 17.0 °F 15.8 °F 59% 29.81 in 10.0 mi North 15.0 mph 27.6 mph N/A   Clear
8:55 PM 26.6 °F 12.4 °F 14.0 °F 59% 29.83 in 10.0 mi North 21.9 mph 29.9 mph N/A   Clear
9:15 PM 26.6 °F 13.1 °F 12.2 °F 55% 29.84 in 10.0 mi North 19.6 mph 27.6 mph N/A   Clear
9:35 PM 26.6 °F 13.8 °F 12.2 °F 55% 29.86 in 10.0 mi North 17.3 mph 25.3 mph N/A   Clear
9:55 PM 24.8 °F 9.3 °F 12.2 °F 59% 29.87 in 10.0 mi North 24.2 mph 31.1 mph N/A   Clear
10:15 PM 24.8 °F 11.5 °F 12.2 °F 59% 29.88 in 10.0 mi North 17.3 mph 26.5 mph N/A   Clear
10:35 PM 23.0 °F 8.7 °F 12.2 °F 63% 29.89 in 10.0 mi North 18.4 mph 27.6 mph N/A   Clear
10:55 PM 23.0 °F 8.3 °F 10.4 °F 59% 29.91 in 10.0 mi North 19.6 mph 25.3 mph N/A   Clear
11:15 PM 21.2 °F 6.0 °F 10.4 °F 63% 29.91 in 10.0 mi North 19.6 mph 25.3 mph N/A   Clear
11:35 PM 21.2 °F 6.8 °F 10.4 °F 63% 29.92 in 10.0 mi North 17.3 mph 23.0 mph N/A   Clear
11:55 PM 21.2 °F 6.0 °F 10.4 °F 63% 29.93 in 10.0 mi North 19.6 mph 26.5 mph N/A   Clear